RYR6KP EGSS-ESMS

Flight info

Callsign RYR6KP
Flight time 1h 30m
Altitude 39000
Route CLN P44 SOMVA DCT MAVAS DCT DOSUR DCT BEVUM DCT KULUD L621 ERNOV
Aircraft B38M/M-SDE1FGHILORVWXY/HB1

Departure

Time 2026-05-01 12:59
Airport London Stansted Airport (EGSS)

Arrival

Time 2026-05-01 14:30
Airport Malmö Sturup Airport (ESMS)
Time Latitude Longitude Altitude Speed Heading
2026-05-01 12:37 51.89367 0.25733 346 ft 0 kts 43°
2026-05-01 12:52 51.89355 0.25715 351 ft 4 kts 39°
2026-05-01 12:52 51.89309 0.25682 354 ft 4 kts 343°
2026-05-01 12:52 51.89299 0.25691 354 ft 0 kts 313°
2026-05-01 12:54 51.89332 0.25633 353 ft 19 kts 313°
2026-05-01 12:54 51.89323 0.25498 346 ft 15 kts 222°
2026-05-01 12:55 51.89073 0.25120 353 ft 29 kts 223°
2026-05-01 12:55 51.88916 0.24888 353 ft 31 kts 225°
2026-05-01 12:55 51.88758 0.24647 346 ft 33 kts 222°
2026-05-01 12:56 51.88584 0.24387 348 ft 35 kts 223°
2026-05-01 12:56 51.88416 0.24138 348 ft 26 kts 223°
2026-05-01 12:56 51.88274 0.23924 345 ft 29 kts 223°
2026-05-01 12:56 51.88120 0.23696 338 ft 31 kts 226°
2026-05-01 12:57 51.87956 0.23448 337 ft 33 kts 223°
2026-05-01 12:57 51.87894 0.23178 338 ft 13 kts 306°
2026-05-01 12:57 51.87833 0.22954 339 ft 29 kts 235°
2026-05-01 12:58 51.87871 0.22789 337 ft 17 kts 314°
2026-05-01 12:58 51.87971 0.22700 338 ft 18 kts 22°
2026-05-01 12:58 51.88163 0.22973 334 ft 77 kts 42°
2026-05-01 12:59 51.89715 0.25313 636 ft 208 kts 46°
2026-05-01 12:59 51.90857 0.27137 1261 ft 243 kts 57°
2026-05-01 12:59 51.91382 0.32313 2663 ft 247 kts 114°
2026-05-01 13:00 51.89911 0.37419 2882 ft 254 kts 118°
2026-05-01 13:00 51.89163 0.40019 3054 ft 256 kts 118°
2026-05-01 13:01 51.87630 0.45268 3289 ft 259 kts 118°
2026-05-01 13:01 51.86862 0.47899 3389 ft 258 kts 118°
2026-05-01 13:01 51.85321 0.53167 3651 ft 261 kts 118°
2026-05-01 13:02 51.84535 0.55833 3860 ft 263 kts 118°
2026-05-01 13:07 51.86523 1.20903 11712 ft 311 kts 70°
2026-05-01 13:07 51.87405 1.24212 12206 ft 330 kts 70°
2026-05-01 13:07 51.88339 1.27692 12815 ft 344 kts 70°
2026-05-01 13:08 51.89299 1.31267 13664 ft 347 kts 70°
2026-05-01 13:08 51.90269 1.34883 14450 ft 352 kts 70°
2026-05-01 13:08 51.91250 1.38544 15175 ft 357 kts 70°
2026-05-01 13:08 51.92243 1.42252 15925 ft 361 kts 70°
2026-05-01 13:09 51.93245 1.46004 16639 ft 365 kts 71°
2026-05-01 13:09 51.94258 1.49800 17341 ft 369 kts 71°
2026-05-01 13:09 51.95313 1.53629 18030 ft 374 kts 69°
2026-05-01 13:09 51.96410 1.57476 18680 ft 378 kts 69°
2026-05-01 13:10 51.97510 1.61362 19271 ft 381 kts 70°
2026-05-01 13:10 51.98615 1.65282 19873 ft 384 kts 70°
2026-05-01 13:10 51.99731 1.69251 20452 ft 387 kts 70°
2026-05-01 13:10 52.00837 1.73189 21024 ft 390 kts 70°
2026-05-01 13:11 52.01965 1.77212 21606 ft 393 kts 70°
2026-05-01 13:11 52.03100 1.81271 22187 ft 396 kts 70°
2026-05-01 13:11 52.04243 1.85365 22765 ft 399 kts 70°
2026-05-01 13:11 52.05394 1.89495 23336 ft 402 kts 70°
2026-05-01 13:12 52.06551 1.93649 23896 ft 406 kts 70°
2026-05-01 13:12 52.07448 1.96878 24254 ft 408 kts 70°
2026-05-01 13:12 52.08619 2.01098 24725 ft 411 kts 70°
2026-05-01 13:12 52.09795 2.05346 25205 ft 414 kts 70°
2026-05-01 13:13 52.10979 2.09630 25664 ft 417 kts 70°
2026-05-01 13:13 52.12170 2.13945 26127 ft 420 kts 70°
2026-05-01 13:13 52.13368 2.18298 26586 ft 422 kts 70°
2026-05-01 13:13 52.14573 2.22679 27024 ft 425 kts 70°
2026-05-01 13:14 52.15783 2.27090 27445 ft 428 kts 70°
2026-05-01 13:14 52.16999 2.31531 27899 ft 431 kts 70°
2026-05-01 13:14 52.18222 2.36008 28331 ft 434 kts 70°
2026-05-01 13:14 52.19450 2.40511 28746 ft 436 kts 69°
2026-05-01 13:15 52.20685 2.45048 29167 ft 439 kts 69°
2026-05-01 13:15 52.21909 2.49552 29570 ft 441 kts 69°
2026-05-01 13:15 52.23152 2.54136 29967 ft 444 kts 69°
2026-05-01 13:15 52.24421 2.58825 30355 ft 446 kts 69°
2026-05-01 13:16 52.25659 2.63410 30679 ft 449 kts 69°
2026-05-01 13:16 52.26919 2.68085 31025 ft 451 kts 69°
2026-05-01 13:16 52.28182 2.72780 31348 ft 453 kts 69°
2026-05-01 13:17 52.31998 2.87028 32350 ft 459 kts 69°
2026-05-01 13:17 52.33277 2.91820 32646 ft 461 kts 69°
2026-05-01 13:18 52.35850 3.01497 33259 ft 466 kts 69°
2026-05-01 13:18 52.37139 3.06361 33576 ft 468 kts 69°
2026-05-01 13:18 52.38435 3.11260 33892 ft 469 kts 69°
2026-05-01 13:18 52.39785 3.16123 34267 ft 470 kts 62°
2026-05-01 13:19 52.41684 3.20494 34656 ft 471 kts 52°
2026-05-01 13:19 52.43683 3.24735 34980 ft 470 kts 54°
2026-05-01 13:19 52.47601 3.33307 35676 ft 469 kts 54°
2026-05-01 13:20 52.49552 3.37592 36025 ft 468 kts 54°
2026-05-01 13:20 52.51501 3.41881 36373 ft 467 kts 54°
2026-05-01 13:20 52.53439 3.46152 36705 ft 466 kts 54°
2026-05-01 13:21 52.57303 3.54692 37343 ft 465 kts 54°
2026-05-01 13:21 52.59201 3.58895 37645 ft 464 kts 54°
2026-05-01 13:21 52.61122 3.63161 37929 ft 463 kts 54°
2026-05-01 13:21 52.63039 3.67421 38212 ft 463 kts 54°
2026-05-01 13:22 52.64953 3.71682 38494 ft 462 kts 54°
2026-05-01 13:22 52.66859 3.75934 38775 ft 461 kts 55°
2026-05-01 13:22 52.68762 3.80185 39000 ft 461 kts 55°
2026-05-01 13:22 52.70661 3.84435 39176 ft 461 kts 55°
2026-05-01 13:23 52.74462 3.92962 39245 ft 461 kts 54°
2026-05-01 13:23 52.78242 4.01473 39248 ft 459 kts 54°
2026-05-01 13:24 52.82017 4.09999 39249 ft 459 kts 54°
2026-05-01 13:25 52.87650 4.22774 39248 ft 460 kts 55°
2026-05-01 13:25 52.91409 4.31337 39257 ft 460 kts 55°
2026-05-01 13:26 52.95165 4.39920 39258 ft 460 kts 55°
2026-05-01 13:26 52.98919 4.48529 39261 ft 460 kts 55°
2026-05-01 13:27 53.02665 4.57147 39263 ft 460 kts 55°
2026-05-01 13:27 53.08267 4.70093 39265 ft 460 kts 55°
2026-05-01 13:28 53.13833 4.83021 39261 ft 460 kts 55°
2026-05-01 13:29 53.21261 5.00376 39258 ft 460 kts 55°
2026-05-01 13:31 53.32354 5.26520 39271 ft 459 kts 55°
2026-05-01 13:32 53.41556 5.48412 39282 ft 460 kts 55°
2026-05-01 13:33 53.50713 5.70388 39271 ft 459 kts 55°
2026-05-01 13:34 53.58003 5.88021 39276 ft 458 kts 55°
2026-05-01 13:35 53.63419 6.01203 39279 ft 458 kts 55°
2026-05-01 13:36 53.68843 6.14476 39279 ft 458 kts 55°
2026-05-01 13:36 53.74259 6.27794 39284 ft 458 kts 55°
2026-05-01 13:37 53.77852 6.36673 39286 ft 458 kts 55°
2026-05-01 13:37 53.81443 6.45575 39293 ft 458 kts 55°
2026-05-01 13:38 53.86811 6.58943 39297 ft 457 kts 56°
2026-05-01 13:39 53.90375 6.67858 39298 ft 456 kts 56°
2026-05-01 13:39 53.93907 6.76725 39305 ft 456 kts 56°
2026-05-01 13:40 53.97451 6.85650 39306 ft 456 kts 56°
2026-05-01 13:40 54.00987 6.94592 39310 ft 455 kts 56°
2026-05-01 13:41 54.04512 7.03535 39313 ft 455 kts 56°
2026-05-01 13:41 54.08037 7.12511 39315 ft 456 kts 56°
2026-05-01 13:42 54.11551 7.21494 39319 ft 456 kts 56°
2026-05-01 13:42 54.15062 7.30498 39318 ft 456 kts 56°
2026-05-01 13:43 54.18568 7.39522 39326 ft 456 kts 56°
2026-05-01 13:43 54.22065 7.48555 39323 ft 456 kts 56°
2026-05-01 13:44 54.25557 7.57612 39328 ft 456 kts 56°
2026-05-01 13:44 54.29019 7.66619 39327 ft 456 kts 56°
2026-05-01 13:45 54.32498 7.75705 39332 ft 456 kts 56°
2026-05-01 13:45 54.35975 7.84821 39333 ft 456 kts 56°
2026-05-01 13:46 54.39434 7.93921 39336 ft 455 kts 56°
2026-05-01 13:46 54.42885 8.03031 39340 ft 455 kts 56°
2026-05-01 13:47 54.46325 8.12150 39340 ft 455 kts 56°
2026-05-01 13:47 54.49756 8.21277 39336 ft 454 kts 56°
2026-05-01 13:48 54.53176 8.30407 39339 ft 454 kts 57°
2026-05-01 13:48 54.56572 8.39506 39343 ft 454 kts 57°
2026-05-01 13:49 54.59980 8.48672 39349 ft 454 kts 57°
2026-05-01 13:49 54.63379 8.57849 39351 ft 454 kts 57°
2026-05-01 13:50 54.66779 8.67050 39348 ft 454 kts 57°
2026-05-01 13:50 54.70170 8.76263 39351 ft 454 kts 57°
2026-05-01 13:51 54.73558 8.85498 39350 ft 454 kts 57°
2026-05-01 13:51 54.76937 8.94745 39348 ft 455 kts 57°
2026-05-01 13:52 54.80313 9.04014 39347 ft 455 kts 57°
2026-05-01 13:52 54.83684 9.13304 39350 ft 455 kts 57°
2026-05-01 13:53 54.86589 9.20908 39350 ft 454 kts 52°
2026-05-01 13:53 54.92331 9.33995 39360 ft 454 kts 52°
2026-05-01 13:54 54.96805 9.44135 39363 ft 454 kts 52°
2026-05-01 13:54 55.00023 9.51452 39371 ft 454 kts 52°
2026-05-01 13:55 55.03859 9.60203 39373 ft 454 kts 52°
2026-05-01 13:55 55.07688 9.68967 39371 ft 454 kts 52°
2026-05-01 13:56 55.11513 9.77754 39368 ft 454 kts 52°
2026-05-01 13:56 55.15328 9.86550 39368 ft 454 kts 52°
2026-05-01 13:57 55.19138 9.95365 39363 ft 454 kts 52°
2026-05-01 13:57 55.22923 10.04156 39364 ft 454 kts 52°
2026-05-01 13:58 55.26723 10.13010 39373 ft 454 kts 52°
2026-05-01 13:58 55.30521 10.21891 39368 ft 455 kts 52°
2026-05-01 13:59 55.34310 10.30787 39373 ft 455 kts 52°
2026-05-01 13:59 55.38089 10.39689 39376 ft 454 kts 52°
2026-05-01 14:00 55.41860 10.48606 39373 ft 454 kts 52°
2026-05-01 14:00 55.45600 10.57480 39370 ft 454 kts 52°
2026-05-01 14:01 55.49360 10.66435 39363 ft 454 kts 52°
2026-05-01 14:01 55.53113 10.75404 39356 ft 454 kts 52°
2026-05-01 14:02 55.56852 10.84375 39361 ft 453 kts 53°
2026-05-01 14:02 55.60585 10.93361 39351 ft 454 kts 53°
2026-05-01 14:03 55.64312 11.02369 39358 ft 453 kts 53°
2026-05-01 14:03 55.68032 11.11392 39355 ft 453 kts 53°
2026-05-01 14:04 55.71747 11.20436 39353 ft 453 kts 53°
2026-05-01 14:04 55.75452 11.29490 39360 ft 453 kts 53°
2026-05-01 14:05 55.79152 11.38564 39364 ft 453 kts 53°
2026-05-01 14:05 55.82843 11.47648 39358 ft 453 kts 53°
2026-05-01 14:06 55.86135 11.55781 39356 ft 453 kts 53°
2026-05-01 14:06 55.87964 11.60312 38885 ft 450 kts 53°
2026-05-01 14:06 55.89812 11.64900 37699 ft 460 kts 53°
2026-05-01 14:07 55.91661 11.69494 37133 ft 455 kts 53°
2026-05-01 14:07 55.93513 11.74103 36115 ft 461 kts 54°
2026-05-01 14:07 55.95388 11.78778 35349 ft 462 kts 54°
2026-05-01 14:08 55.99140 11.88155 33469 ft 469 kts 54°
2026-05-01 14:08 56.01026 11.92883 32649 ft 467 kts 54°
2026-05-01 14:08 56.02985 11.97557 31448 ft 474 kts 46°
2026-05-01 14:08 56.05457 12.01392 30754 ft 468 kts 39°
2026-05-01 14:09 56.07925 12.05238 29404 ft 475 kts 40°
2026-05-01 14:09 56.10450 12.09119 28347 ft 477 kts 40°
2026-05-01 14:09 56.12944 12.12989 27620 ft 472 kts 40°
2026-05-01 14:09 56.15409 12.16834 26857 ft 468 kts 40°
2026-05-01 14:10 56.17815 12.20738 26024 ft 467 kts 46°
2026-05-01 14:10 56.19747 12.25434 25073 ft 470 kts 61°
2026-05-01 14:10 56.20941 12.30868 24367 ft 467 kts 76°
2026-05-01 14:10 56.21372 12.36632 23582 ft 465 kts 90°
2026-05-01 14:11 56.21066 12.42396 22688 ft 463 kts 102°
2026-05-01 14:11 56.18435 12.52731 21127 ft 450 kts 123°
2026-05-01 14:11 56.16789 12.57385 20365 ft 434 kts 123°
2026-05-01 14:12 56.15162 12.61860 19630 ft 421 kts 124°
2026-05-01 14:12 56.13567 12.66164 18981 ft 409 kts 124°
2026-05-01 14:12 56.11999 12.70339 18281 ft 399 kts 125°
2026-05-01 14:12 56.10421 12.74510 17513 ft 408 kts 125°
2026-05-01 14:13 56.08815 12.78739 16844 ft 411 kts 125°
2026-05-01 14:13 56.07752 12.81534 16417 ft 411 kts 125°
2026-05-01 14:13 56.05601 12.87176 15538 ft 410 kts 126°
2026-05-01 14:13 56.04012 12.91336 14882 ft 410 kts 126°
2026-05-01 14:14 56.02403 12.95542 14251 ft 410 kts 126°
2026-05-01 14:14 56.00792 12.99747 13537 ft 410 kts 126°
2026-05-01 14:14 55.99181 13.03942 12878 ft 408 kts 126°
2026-05-01 14:14 55.97579 13.08106 12286 ft 405 kts 126°
2026-05-01 14:15 55.96005 13.12194 11981 ft 390 kts 126°
2026-05-01 14:15 55.94472 13.15976 11785 ft 363 kts 134°
2026-05-01 14:15 55.92563 13.18624 11571 ft 336 kts 156°
2026-05-01 14:15 55.90426 13.19800 11408 ft 311 kts 175°
2026-05-01 14:16 55.88351 13.20248 11261 ft 291 kts 176°
2026-05-01 14:16 55.86394 13.20602 11113 ft 275 kts 178°
2026-05-01 14:16 55.84543 13.20891 10953 ft 261 kts 178°
2026-05-01 14:16 55.82725 13.21148 10821 ft 269 kts 179°
2026-05-01 14:17 55.80832 13.21401 10657 ft 276 kts 179°
2026-05-01 14:17 55.78906 13.21646 10518 ft 279 kts 179°
2026-05-01 14:17 55.76966 13.21886 10265 ft 280 kts 179°
2026-05-01 14:17 55.75019 13.22124 9931 ft 280 kts 179°
2026-05-01 14:18 55.73079 13.22360 9605 ft 279 kts 179°
2026-05-01 14:18 55.71147 13.22593 9289 ft 277 kts 179°
2026-05-01 14:18 55.69228 13.22823 8977 ft 276 kts 178°
2026-05-01 14:18 55.67963 13.22976 8771 ft 274 kts 179°
2026-05-01 14:19 55.65422 13.23280 8367 ft 272 kts 179°
2026-05-01 14:19 55.63534 13.23507 8067 ft 270 kts 178°
2026-05-01 14:19 55.61666 13.23730 7768 ft 269 kts 179°
2026-05-01 14:19 55.59828 13.23950 7468 ft 267 kts 178°
2026-05-01 14:20 55.57982 13.24106 7234 ft 263 kts 180°
2026-05-01 14:20 55.54336 13.24340 6889 ft 262 kts 180°
2026-05-01 14:20 55.52511 13.24462 6715 ft 262 kts 180°
2026-05-01 14:21 55.50690 13.24586 6526 ft 262 kts 180°
2026-05-01 14:21 55.48867 13.24712 6330 ft 262 kts 180°
2026-05-01 14:21 55.47054 13.24834 6157 ft 260 kts 180°
2026-05-01 14:22 55.43525 13.25074 5904 ft 247 kts 180°
2026-05-01 14:22 55.41789 13.25190 5542 ft 253 kts 180°
2026-05-01 14:22 55.39996 13.25312 5011 ft 264 kts 180°
2026-05-01 14:22 55.38138 13.25439 4611 ft 267 kts 180°
2026-05-01 14:23 55.36289 13.25564 4086 ft 267 kts 180°
2026-05-01 14:23 55.34444 13.25710 3624 ft 264 kts 175°
2026-05-01 14:23 55.32727 13.26827 3080 ft 266 kts 146°
2026-05-01 14:23 55.31578 13.29296 2554 ft 265 kts 109°
2026-05-01 14:24 55.31411 13.32354 2485 ft 241 kts 76°
2026-05-01 14:24 55.31910 13.34991 2512 ft 217 kts 66°
2026-05-01 14:24 55.32496 13.37313 2501 ft 203 kts 49°
2026-05-01 14:24 55.33550 13.38864 2474 ft 195 kts 24°
2026-05-01 14:25 55.34768 13.39971 2517 ft 198 kts 22°
2026-05-01 14:25 55.36047 13.40770 2531 ft 192 kts 359°
2026-05-01 14:25 55.37360 13.40640 2490 ft 193 kts 352°
2026-05-01 14:25 55.38701 13.40461 2452 ft 193 kts 352°
2026-05-01 14:26 55.40036 13.40258 2502 ft 193 kts 354°
2026-05-01 14:26 55.42722 13.39867 2448 ft 194 kts 351°
2026-05-01 14:26 55.44056 13.39588 2239 ft 192 kts 350°
2026-05-01 14:27 55.45372 13.39312 1949 ft 189 kts 349°
2026-05-01 14:27 55.46664 13.38988 1433 ft 184 kts 347°
2026-05-01 14:27 55.47861 13.38716 1236 ft 163 kts 353°
2026-05-01 14:28 55.49924 13.38372 722 ft 133 kts 346°
2026-05-01 14:28 55.50847 13.38183 545 ft 135 kts 351°
2026-05-01 14:28 55.51780 13.37995 383 ft 134 kts 347°
2026-05-01 14:28 55.52693 13.37814 243 ft 128 kts 349°
2026-05-01 14:29 55.53501 13.37621 241 ft 116 kts 353°
2026-05-01 14:29 55.54176 13.37497 242 ft 51 kts 345°
2026-05-01 14:30 55.54161 13.37213 234 ft 14 kts 175°
2026-05-01 14:30 55.54018 13.37245 236 ft 17 kts 177°
2026-05-01 14:30 55.53972 13.37214 235 ft 7 kts 230°
2026-05-01 14:31 55.53957 13.36988 233 ft 8 kts 294°
2026-05-01 14:31 55.53973 13.36974 236 ft 4 kts 355°
2026-05-01 14:31 55.54022 13.36967 235 ft 3 kts 353°
2026-05-01 14:31 55.54024 13.36966 233 ft 0 kts 353°
2026-05-01 14:32 55.54023 13.36968 233 ft 0 kts 352°